[[{"header":{"parameterUnit":"m.s-1","parameterCategory":2,"la1":30.2991,"la2":30.254,"lo1":-89.0895,"lo2":-89.0444,"dy":0.0017,"dx":0.0017,"nx":28,"ny":28,"refTime":"2025-03-21T21:00:00:Z","depth":"0","parameterNumber":2,"parameterNumberName":"U-component_of_CURRENTS"},"data":[0,0,0,0,0,0,0,0,0,0,0,0,0,0,0,0,0,0,0,0,0,0,0,0,0,0,0,0,0,0,0,0,0,0,0,0,0,0,0,0,0,0,0,0,0,0,0,0,0,0,0,0,0,0,0,0,0,0,0.2707,0.2708,0,0.2781,0.2782,0.2783,0.2814,0.2814,0.2814,0.2813,0.2854,0.2855,0.2856,0,0,0,0,0,0,0,0,0,0,0,0,0,0.2652,0.2652,0.2707,0.2708,0.2709,0.2781,0.2782,0.2783,0.2814,0.2814,0.2814,0.2813,0.2853,0.2855,0.2856,0,0,0,0,0,0,0,0,0,0,0,0,0,0.2696,0.2652,0.2707,0.2733,0.2736,0.2781,0.2782,0.2783,0.2814,0.2814,0.2814,0.2813,0.2853,0.2855,0.2856,0.2873,0,0,0.2862,0.2863,0,0,0,0,0,0,0,0,0.2693,0.2698,0.2728,0.2731,0.2735,0.2788,0.2777,0.2811,0.2814,0.2785,0.2813,0.2813,0.2828,0.2832,0.2848,0.2875,0.2877,0.2862,0.2863,0.2864,0.2865,0,0,0,0,0,0,0,0.269,0.2695,0.2737,0.2729,0.2733,0.2761,0.2766,0.2784,0.2807,0.2787,0.279,0.2797,0.283,0.2846,0.2849,0.2877,0.2862,0.2864,0.2865,0.2866,0.2947,0.2948,0,0,0,0,0,0,0.2677,0.2692,0.2735,0.2739,0.2712,0.2761,0.2768,0.2771,0.2808,0.2813,0.2797,0.2798,0.2843,0.2847,0.285,0.2898,0.2864,0.2866,0.2867,0.2946,0.2948,0.2949,0,0,0,0,0,0,0.2676,0.268,0.2732,0.2717,0.2725,0.2762,0.2766,0.2773,0.2792,0.2815,0.282,0.281,0.2843,0.2848,0.288,0.2898,0.2867,0.2868,0.2945,0.2947,0.2948,0.2976,0,0,0,0,0,0,0.2674,0.2679,0.2681,0.2716,0.2726,0.2759,0.2767,0.2774,0.2797,0.2799,0.2828,0.2831,0.2843,0.2877,0.2882,0.29,0.287,0.2944,0.2946,0.2948,0.2974,0.2978,0.2982,0,0,0,0,0,0.2671,0.2677,0.268,0.2685,0.2725,0.276,0.2767,0.2793,0.2798,0.2809,0.2835,0.2831,0.2893,0.288,0.2885,0.2904,0.2943,0.2945,0.2947,0.2972,0.2977,0.2982,0,0,0,0,0,0,0.2658,0.2682,0.2686,0.2698,0.2725,0.2765,0.2779,0.2795,0.2826,0.2828,0.2847,0.2853,0.289,0.2893,0.2878,0.2934,0.2916,0.2919,0.2933,0.2938,0.2942,0.2923,0.2871,0,0,0,0,0,0.2653,0.266,0.2689,0.27,0.2712,0.2745,0.2762,0.278,0.2811,0.2825,0.2843,0.2868,0.2904,0.2916,0.2942,0.297,0.297,0.2985,0.2989,0.2993,0.2981,0.3021,0.3028,0.2956,0.2956,0.2956,0,0,0.2651,0.2665,0.267,0.2698,0.272,0.2744,0.2755,0.2783,0.2806,0.2823,0.2856,0.2884,0.2916,0.2956,0.2971,0.2959,0.3011,0.2996,0.2999,0.2984,0.3024,0.3031,0.3037,0.2958,0.2958,0.2958,0,0,0.2655,0.2663,0.2671,0.2692,0.2723,0.2746,0.2752,0.2789,0.2808,0.2845,0.2871,0.2907,0.2947,0.2979,0.3002,0.3042,0.3036,0.305,0.3053,0.3093,0.3099,0.3104,0.3103,0.3108,0.3048,0.3048,0.3048,0,0.2654,0.2663,0.2681,0.2698,0.2716,0.2745,0.2764,0.2793,0.2836,0.2859,0.2854,0.2939,0.2959,0.3025,0.3037,0.3051,0.3058,0.3032,0.3098,0.3103,0.3108,0.3106,0.3111,0.305,0.305,0.305,0.305,0,0.2663,0.2673,0.2682,0.2708,0.2733,0.2754,0.2792,0.2817,0.284,0.2872,0.2932,0.2968,0.3017,0.3034,0.3046,0.3099,0.3088,0.3103,0.3083,0.3117,0.3112,0.3117,0.3052,0.3052,0.3051,0.3051,0,0,0.2649,0.2681,0.2683,0.2692,0.2738,0.2757,0.2801,0.285,0.2884,0.2922,0.2967,0.3027,0.3046,0.3071,0.3098,0.3122,0.3158,0.312,0.3121,0.3112,0.322,0.3167,0.3167,0.3192,0.3193,0.3194,0.3198,0,0.2649,0.2668,0.2692,0.2718,0.2731,0.2773,0.2812,0.2863,0.2909,0.2958,0.3007,0.3057,0.3064,0.3088,0.312,0.3159,0.3174,0.3153,0.3192,0.3192,0.3137,0.3172,0.3046,0.3036,0.3203,0.3203,0.3204,0,0.2642,0.2656,0.2674,0.2714,0.2725,0.2749,0.2813,0.2855,0.294,0.2979,0.3044,0.308,0.3136,0.3126,0.3197,0.3187,0.3195,0.321,0.3211,0.3152,0.3148,0.3032,0.3038,0.2954,0.3211,0.321,0.321,0,0.2604,0.2641,0.2649,0.2663,0.2717,0.2737,0.2775,0.2859,0.2908,0.2992,0.3033,0.3109,0.315,0.3185,0.3219,0.3212,0.3279,0.328,0.3234,0.3229,0.3121,0.3105,0.3043,0.3311,0.3311,0.3311,0.3311,0,0.2584,0.259,0.2628,0.263,0.2655,0.2706,0.2755,0.2811,0.2903,0.2959,0.3036,0.309,0.3168,0.3219,0.3232,0.3249,0.3297,0.3228,0.3234,0.3125,0.311,0.3031,0.3009,0.3311,0.3311,0.3311,0.3311,0,0.2537,0.256,0.2572,0.2618,0.2634,0.2651,0.2737,0.2772,0.2868,0.2943,0.2967,0.3092,0.3155,0.3213,0.3275,0.3264,0.3188,0.3271,0.3116,0.3103,0.2959,0.2944,0.28,0.2725,0.3206,0.3205,0.3204,0,0.2513,0.2511,0.2549,0.2553,0.257,0.261,0.2636,0.2742,0.2789,0.2935,0.2959,0.3061,0.3126,0.3205,0.3199,0.3206,0.3137,0.3079,0.304,0.2926,0.2915,0.2825,0.2766,0.2902,0.2898,0.2895,0.2893,0,0.2468,0.2479,0.2486,0.2496,0.2511,0.2542,0.2591,0.2627,0.2745,0.2812,0.2908,0.2977,0.307,0.3044,0.3065,0.3054,0.2925,0.3021,0.2955,0.2707,0.2553,0.2492,0.2904,0.2869,0.2871,0.2873,0.2874,0.2875,0.243,0.242,0.2427,0.2426,0.244,0.2451,0.2448,0.2514,0.2575,0.2649,0.2788,0.2834,0.2885,0.2909,0.288,0.2733,0.2756,0.2637,0.2637,0.2563,0.2453,0.2791,0.2739,0.274,0.2742,0.2743,0.2744,0,0.2368,0.2357,0.2355,0.2342,0.2313,0.2361,0.2388,0.2368,0.2382,0.2492,0.2569,0.259,0.2566,0.2574,0.2482,0.2372,0.2275,0.2294,0.2139,0.2111,0.2453,0.2403,0.2212,0.2212,0.2212,0.2212,0.2212,0.2212,0.2333,0.2294,0.2284,0.221,0.2198,0.2137,0.2129,0.2123,0.2165,0.217,0.2177,0.2256,0.2332,0.2296,0.2156,0.2099,0.1951,0.1842,0.1866,0.2114,0.2146,0.2176,0.2122,0.1876,0.1876,0.1423,0.142,0.1417]},{"header":{"parameterUnit":"m.s-1","parameterCategory":2,"la1":30.2991,"la2":30.254,"lo1":-89.0895,"lo2":-89.0444,"dy":0.0017,"dx":0.0017,"nx":28,"ny":28,"refTime":"2025-03-21T21:00:00:Z","depth":"0","parameterNumber":3,"parameterNumberName":"V-component_of_CURRENTS"},"data":[0,0,0,0,0,0,0,0,0,0,0,0,0,0,0,0,0,0,0,0,0,0,0,0,0,0,0,0,0,0,0,0,0,0,0,0,0,0,0,0,0,0,0,0,0,0,0,0,0,0,0,0,0,0,0,0,0,0,0.0213,0.0212,0,0.018,0.018,0.0179,0.015,0.015,0.015,0.0149,0.0096,0.0095,0.0093,0,0,0,0,0,0,0,0,0,0,0,0,0,0.0197,0.0198,0.0213,0.0212,0.0212,0.018,0.018,0.0179,0.015,0.015,0.0149,0.0149,0.0096,0.0095,0.0093,0,0,0,0,0,0,0,0,0,0,0,0,0,0.0188,0.0198,0.0213,0.0194,0.0192,0.018,0.018,0.0179,0.015,0.015,0.0149,0.0149,0.0097,0.0095,0.0093,0.0091,0,0,0.0088,0.0087,0,0,0,0,0,0,0,0,0.0188,0.0188,0.0197,0.0195,0.0193,0.017,0.0155,0.0149,0.015,0.0165,0.0149,0.0149,0.0119,0.0116,0.011,0.0088,0.0086,0.0088,0.0087,0.0086,0.0085,0,0,0,0,0,0,0,0.0189,0.0189,0.0199,0.0197,0.0195,0.017,0.0168,0.0153,0.0144,0.0164,0.0162,0.016,0.0118,0.0111,0.0108,0.0085,0.0088,0.0086,0.0085,0.0084,0.0061,0.0061,0,0,0,0,0,0,0.0198,0.019,0.02,0.0198,0.0191,0.0171,0.0169,0.0177,0.0145,0.014,0.016,0.0159,0.0115,0.011,0.0106,0.0116,0.0086,0.0084,0.0083,0.006,0.0061,0.0061,0,0,0,0,0,0,0.0198,0.02,0.0201,0.0193,0.0192,0.0172,0.0181,0.0177,0.0173,0.0142,0.0136,0.0162,0.0114,0.0109,0.0098,0.0113,0.0083,0.0082,0.006,0.006,0.0061,0.0126,0,0,0,0,0,0,0.0198,0.02,0.0207,0.0194,0.0193,0.0204,0.0181,0.0176,0.0173,0.017,0.0142,0.0136,0.0113,0.0101,0.0096,0.011,0.0081,0.0059,0.006,0.0061,0.0124,0.0129,0.0134,0,0,0,0,0,0.0198,0.0213,0.0208,0.0209,0.0204,0.0205,0.0202,0.0185,0.0174,0.0179,0.0156,0.0137,0.0102,0.01,0.0094,0.0108,0.0059,0.006,0.0061,0.0121,0.0128,0.0134,0,0,0,0,0,0,0.0207,0.0211,0.0205,0.022,0.0216,0.0201,0.0202,0.0191,0.0178,0.0173,0.0143,0.0136,0.013,0.011,0.0108,0.0102,0.0077,0.0077,0.0125,0.0131,0.0136,0.0155,0.0079,0,0,0,0,0,0.0214,0.0227,0.0223,0.0234,0.0235,0.022,0.0217,0.0207,0.0194,0.0188,0.0168,0.0145,0.0129,0.0123,0.0103,0.0104,0.0082,0.0108,0.0114,0.0118,0.0129,0.0109,0.0114,0.0064,0.0064,0.0064,0,0,0.0219,0.0223,0.0229,0.0237,0.0231,0.0243,0.0217,0.0219,0.0229,0.0184,0.0188,0.016,0.0132,0.0129,0.0126,0.0116,0.012,0.0119,0.0124,0.0132,0.0111,0.0115,0.012,0.0065,0.0065,0.0065,0,0,0.0241,0.0242,0.0262,0.0266,0.0266,0.0259,0.0264,0.0254,0.025,0.0248,0.0218,0.0204,0.018,0.0167,0.0156,0.0178,0.0143,0.0168,0.0215,0.0196,0.02,0.0203,0.018,0.018,0.0176,0.0176,0.0176,0,0.0247,0.0275,0.0267,0.0288,0.0295,0.0272,0.0295,0.029,0.0276,0.0281,0.0257,0.0227,0.02,0.0206,0.0211,0.0192,0.0171,0.0196,0.0204,0.0206,0.0209,0.0183,0.0184,0.0179,0.0179,0.0178,0.0178,0,0.0287,0.0308,0.032,0.0342,0.0347,0.0363,0.0357,0.0361,0.0348,0.0341,0.0338,0.0298,0.0283,0.0271,0.0247,0.0255,0.0231,0.0209,0.0192,0.0218,0.0189,0.0188,0.0184,0.0183,0.0182,0.0181,0,0,0.0308,0.0344,0.0348,0.0372,0.0379,0.0392,0.0409,0.0425,0.0449,0.0419,0.044,0.0404,0.0379,0.0364,0.033,0.0314,0.0307,0.0275,0.0272,0.0258,0.0261,0.0244,0.0241,0.0285,0.0285,0.0286,0.0233,0,0.0344,0.04,0.0403,0.0451,0.0481,0.0471,0.0496,0.0503,0.05,0.0513,0.0471,0.0469,0.0416,0.0409,0.0385,0.0328,0.0307,0.0323,0.0232,0.0229,0.0217,0.0241,0.0262,0.0218,0.0232,0.0232,0.0231,0,0.0387,0.042,0.0476,0.0523,0.0535,0.0558,0.0598,0.0618,0.0625,0.0622,0.0607,0.0566,0.0538,0.0483,0.0404,0.0416,0.0347,0.0297,0.0293,0.0257,0.0211,0.0193,0.0215,0.0125,0.0229,0.0229,0.023,0,0.0418,0.0472,0.0521,0.0537,0.0582,0.0608,0.0632,0.0654,0.0691,0.0692,0.0705,0.0655,0.0636,0.0545,0.0431,0.0418,0.0339,0.0304,0.0224,0.0221,0.0213,0.0209,0.0145,0.0249,0.0249,0.0249,0.0249,0,0.0462,0.0502,0.0544,0.0575,0.0643,0.0654,0.0728,0.0744,0.0779,0.0831,0.0764,0.0785,0.065,0.0581,0.0465,0.0347,0.036,0.0241,0.0213,0.0235,0.0234,0.0132,0.0063,0.0247,0.0248,0.0248,0.0248,0,0.0492,0.0517,0.0583,0.064,0.0663,0.0715,0.0797,0.0854,0.0869,0.093,0.0929,0.089,0.0803,0.0656,0.0516,0.0402,0.0226,0.0231,0.0264,0.0241,0.0082,0.0016,-0.0089,-0.0124,0.014,0.0139,0.0138,0,0.0515,0.0551,0.0632,0.068,0.0711,0.0788,0.0849,0.0898,0.0965,0.1001,0.1038,0.0971,0.0954,0.074,0.0524,0.032,0.0213,0.0196,0.0174,0.0087,-0.0008,-0.0048,-0.0072,0.0183,0.0182,0.0182,0.0182,0,0.0559,0.0585,0.0639,0.0738,0.0811,0.0901,0.0991,0.1061,0.1117,0.1174,0.1237,0.1224,0.1013,0.083,0.0535,0.0388,0.014,0.0188,0.0092,0.0021,-0.0021,-0.0071,0.0196,0.0181,0.0181,0.0182,0.0182,0.0182,0.059,0.0636,0.0707,0.0803,0.0889,0.1004,0.1096,0.1201,0.1321,0.1425,0.1399,0.1415,0.1113,0.0729,0.0514,0.0139,0.0125,0.0034,-0.0039,-0.0071,-0.01,0.0165,0.0121,0.0121,0.012,0.012,0.012,0,0.0627,0.0682,0.077,0.0886,0.0987,0.1029,0.1184,0.1292,0.1451,0.1545,0.1614,0.1477,0.1123,0.074,0.0215,-0.0034,-0.0112,-0.0172,-0.0219,-0.0233,0.0003,0.0011,-0.0051,-0.0051,-0.0051,-0.0051,-0.0051,-0.0051,0.0649,0.0731,0.0777,0.0944,0.1032,0.1181,0.1279,0.1445,0.156,0.1703,0.1724,0.1715,0.1389,0.0465,-0.0112,-0.0239,-0.0396,-0.0449,-0.053,-0.0369,-0.0354,-0.0341,-0.0347,-0.0484,-0.0484,-0.0702,-0.0705,-0.0707]}],[{"header":{"parameterUnit":"m.s-1","parameterCategory":2,"la1":30.2991,"la2":30.254,"lo1":-89.0895,"lo2":-89.0444,"dy":0.0017,"dx":0.0017,"nx":28,"ny":28,"refTime":"2025-03-21T21:00:00:Z","depth":"2","parameterNumber":2,"parameterNumberName":"U-component_of_CURRENTS"},"data":[0,0,0,0,0,0,0,0,0,0,0,0,0,0,0,0,0,0,0,0,0,0,0,0,0,0,0,0,0,0,0,0,0,0,0,0,0,0,0,0,0,0,0,0,0,0,0,0,0,0,0,0,0,0,0,0,0,0,0.2193,0.2193,0,0.2216,0.2216,0.2216,0.2221,0.2221,0.2221,0.2221,0.2244,0.2245,0.2246,0,0,0,0,0,0,0,0,0,0,0,0,0,0.2171,0.2171,0.2193,0.2193,0.2193,0.2216,0.2216,0.2216,0.2221,0.2221,0.2221,0.2221,0.2244,0.2245,0.2246,0,0,0,0,0,0,0,0,0,0,0,0,0,0.2185,0.2171,0.2193,0.2199,0.22,0.2216,0.2216,0.2216,0.2221,0.2221,0.2221,0.2221,0.2244,0.2245,0.2246,0.2254,0,0,0.2249,0.2249,0,0,0,0,0,0,0,0,0.2184,0.2186,0.2198,0.2199,0.22,0.2217,0.2217,0.223,0.2221,0.2212,0.2221,0.2221,0.2236,0.2237,0.224,0.2256,0.2257,0.2249,0.225,0.225,0.225,0,0,0,0,0,0,0,0.2183,0.2185,0.2201,0.2198,0.22,0.2208,0.2209,0.222,0.2223,0.2213,0.2213,0.2218,0.2236,0.2239,0.2241,0.2257,0.2249,0.225,0.2251,0.2251,0.232,0.2321,0,0,0,0,0,0,0.2182,0.2184,0.22,0.2202,0.2193,0.2208,0.221,0.221,0.2223,0.2225,0.2218,0.2218,0.2238,0.224,0.2242,0.2288,0.225,0.2251,0.2252,0.2319,0.232,0.2321,0,0,0,0,0,0,0.2181,0.2183,0.2199,0.2194,0.2197,0.2209,0.2209,0.2211,0.2225,0.2227,0.2229,0.2231,0.2238,0.224,0.2262,0.2288,0.2252,0.2252,0.2317,0.2319,0.2321,0.2358,0,0,0,0,0,0,0.218,0.2182,0.2187,0.2194,0.2197,0.2214,0.221,0.2211,0.2227,0.2228,0.2239,0.2241,0.2238,0.2261,0.2263,0.2288,0.2253,0.2316,0.2318,0.232,0.2355,0.2361,0.2365,0,0,0,0,0,0.2179,0.2184,0.2187,0.2189,0.2201,0.2215,0.2217,0.2224,0.2228,0.2236,0.2246,0.2241,0.2277,0.2262,0.2265,0.2291,0.2315,0.2317,0.232,0.2353,0.236,0.2365,0,0,0,0,0,0,0.2177,0.2186,0.2188,0.2196,0.2208,0.2216,0.2226,0.2233,0.2247,0.2252,0.2253,0.2255,0.2287,0.2284,0.2267,0.2319,0.2297,0.23,0.2321,0.2327,0.2332,0.2325,0.2254,0,0,0,0,0,0.2179,0.2185,0.2195,0.2203,0.2209,0.2221,0.223,0.2237,0.2249,0.2256,0.2263,0.2277,0.2299,0.2308,0.2322,0.2346,0.2346,0.2366,0.2371,0.2376,0.2373,0.2407,0.2415,0.233,0.233,0.233,0,0,0.2181,0.2187,0.2191,0.2203,0.2213,0.2226,0.2226,0.2244,0.226,0.2257,0.228,0.2296,0.2311,0.234,0.2354,0.234,0.2399,0.2379,0.2383,0.2377,0.2411,0.2419,0.2426,0.2332,0.2332,0.2331,0,0,0.2186,0.2193,0.2201,0.2212,0.2231,0.2239,0.2248,0.2264,0.2275,0.2301,0.231,0.2338,0.2361,0.2378,0.239,0.2433,0.2428,0.2443,0.2461,0.2495,0.2502,0.2508,0.2512,0.2519,0.2443,0.2443,0.2443,0,0.2191,0.2196,0.2206,0.2218,0.223,0.2247,0.2261,0.2277,0.2299,0.2319,0.2313,0.2372,0.238,0.2427,0.244,0.2445,0.2453,0.2435,0.2502,0.2508,0.2513,0.2516,0.2523,0.2445,0.2445,0.2444,0.2444,0,0.2198,0.2208,0.2215,0.2234,0.2251,0.2266,0.2289,0.2311,0.233,0.2351,0.2402,0.2417,0.2453,0.2465,0.2462,0.2515,0.2504,0.2507,0.2483,0.2524,0.2524,0.253,0.2448,0.2447,0.2446,0.2446,0,0,0.2188,0.2215,0.2217,0.2226,0.226,0.2271,0.2309,0.2346,0.2378,0.2407,0.2447,0.2488,0.2506,0.252,0.2531,0.2552,0.2594,0.2545,0.2546,0.2544,0.2654,0.2595,0.2596,0.2615,0.2616,0.2617,0.2635,0,0.219,0.2206,0.2226,0.2248,0.2258,0.2292,0.2324,0.2366,0.2405,0.2448,0.2485,0.2527,0.2526,0.2547,0.2575,0.2596,0.2614,0.2588,0.2618,0.2619,0.2558,0.2602,0.2401,0.2396,0.2641,0.2642,0.2642,0,0.2184,0.2196,0.2215,0.225,0.2259,0.2281,0.2339,0.2373,0.2447,0.2482,0.2542,0.2569,0.2619,0.2603,0.2662,0.2649,0.2653,0.2657,0.2658,0.2593,0.2571,0.2397,0.2397,0.2652,0.2652,0.2651,0.265,0,0.2154,0.2186,0.2198,0.2209,0.2255,0.2278,0.2313,0.2386,0.2429,0.251,0.255,0.2615,0.2652,0.2679,0.2698,0.2687,0.2746,0.2734,0.268,0.2675,0.2502,0.248,0.2767,0.2767,0.2767,0.2767,0.2767,0,0.2137,0.2145,0.2183,0.2187,0.2215,0.226,0.2309,0.236,0.2444,0.2494,0.2566,0.2612,0.2676,0.2717,0.2718,0.2722,0.2771,0.2686,0.2684,0.2509,0.2487,0.2708,0.2701,0.2767,0.2767,0.2767,0.2767,0,0.2097,0.2121,0.2135,0.2181,0.2199,0.222,0.2302,0.2335,0.2427,0.2494,0.252,0.2629,0.2683,0.2725,0.277,0.2745,0.275,0.2734,0.2511,0.2482,0.2644,0.2639,0.2671,0.267,0.2668,0.2667,0.2666,0,0.2076,0.2078,0.212,0.2126,0.2146,0.219,0.2217,0.2315,0.2357,0.2492,0.2512,0.2606,0.2652,0.2706,0.2677,0.2669,0.2727,0.2466,0.2407,0.2644,0.2639,0.2636,0.2633,0.2187,0.2182,0.2178,0.2175,0,0.2037,0.2052,0.2062,0.2079,0.2099,0.2126,0.2177,0.2209,0.2316,0.2375,0.2454,0.2507,0.2574,0.2485,0.2489,0.2456,0.2452,0.2385,0.2702,0.2249,0.219,0.2184,0.2196,0.2139,0.2142,0.2145,0.2147,0.2148,0.2005,0.1998,0.2011,0.2017,0.2036,0.2041,0.2035,0.2094,0.2143,0.2201,0.2317,0.232,0.2347,0.2254,0.2178,0.211,0.2276,0.2161,0.2172,0.2187,0.2135,0.2078,0.1994,0.1996,0.1999,0.2001,0.2003,0,0.1949,0.1944,0.1946,0.1936,0.1912,0.1961,0.1981,0.1951,0.1953,0.2039,0.2088,0.1926,0.1879,0.1898,0.1741,0.1732,0.1703,0.1657,0.1597,0.1635,0.1668,0.1587,0.1302,0.1299,0.1297,0.1295,0,0,0.1919,0.1886,0.1876,0.1808,0.1803,0.1743,0.1732,0.171,0.1734,0.171,0.1697,0.1838,0.1874,0.1574,0.1527,0.1386,0.1503,0.1335,0.1903,0.1874,0.1904,0.1971,0.1891,0,0,0,0,0]},{"header":{"parameterUnit":"m.s-1","parameterCategory":2,"la1":30.2991,"la2":30.254,"lo1":-89.0895,"lo2":-89.0444,"dy":0.0017,"dx":0.0017,"nx":28,"ny":28,"refTime":"2025-03-21T21:00:00:Z","depth":"2","parameterNumber":3,"parameterNumberName":"V-component_of_CURRENTS"},"data":[0,0,0,0,0,0,0,0,0,0,0,0,0,0,0,0,0,0,0,0,0,0,0,0,0,0,0,0,0,0,0,0,0,0,0,0,0,0,0,0,0,0,0,0,0,0,0,0,0,0,0,0,0,0,0,0,0,0,0.0239,0.0239,0,0.0213,0.0213,0.0212,0.0189,0.0189,0.0189,0.0189,0.0143,0.0142,0.0141,0,0,0,0,0,0,0,0,0,0,0,0,0,0.0223,0.0223,0.0239,0.0239,0.0238,0.0213,0.0213,0.0212,0.019,0.0189,0.0189,0.0189,0.0143,0.0142,0.0141,0,0,0,0,0,0,0,0,0,0,0,0,0,0.0216,0.0224,0.0239,0.0224,0.0223,0.0213,0.0213,0.0212,0.019,0.0189,0.0189,0.0189,0.0143,0.0142,0.014,0.0138,0,0,0.0136,0.0135,0,0,0,0,0,0,0,0,0.0217,0.0217,0.0227,0.0225,0.0223,0.0204,0.019,0.0186,0.019,0.0202,0.0189,0.0188,0.0162,0.0159,0.0155,0.0136,0.0134,0.0136,0.0135,0.0134,0.0134,0,0,0,0,0,0,0,0.0217,0.0218,0.0228,0.0226,0.0224,0.0203,0.0202,0.0189,0.0183,0.0201,0.0199,0.0197,0.0161,0.0156,0.0153,0.0133,0.0136,0.0134,0.0133,0.0133,0.0109,0.011,0,0,0,0,0,0,0.0224,0.0219,0.0229,0.0228,0.0219,0.0204,0.0203,0.0211,0.0184,0.018,0.0197,0.0196,0.0159,0.0155,0.0152,0.0159,0.0134,0.0133,0.0132,0.0109,0.0109,0.011,0,0,0,0,0,0,0.0224,0.0226,0.023,0.0222,0.0221,0.0205,0.0213,0.021,0.0208,0.0182,0.0177,0.0199,0.0158,0.0154,0.0145,0.0156,0.0132,0.0131,0.0109,0.0109,0.0109,0.0166,0,0,0,0,0,0,0.0224,0.0226,0.0233,0.0223,0.0222,0.0233,0.0214,0.021,0.0207,0.0206,0.0182,0.0177,0.0158,0.0148,0.0144,0.0154,0.0129,0.0108,0.0109,0.0109,0.0164,0.0168,0.0172,0,0,0,0,0,0.0224,0.0238,0.0234,0.0235,0.0233,0.0234,0.0231,0.0217,0.0208,0.0213,0.0195,0.0178,0.0148,0.0147,0.0142,0.0152,0.0108,0.0109,0.0109,0.0162,0.0167,0.0172,0,0,0,0,0,0,0.0231,0.0236,0.0232,0.0246,0.0243,0.023,0.0231,0.0223,0.0213,0.0209,0.0183,0.0178,0.0172,0.0154,0.0154,0.0146,0.0124,0.0124,0.0166,0.0171,0.0175,0.019,0.0128,0,0,0,0,0,0.0238,0.0251,0.0248,0.0258,0.0259,0.0246,0.0244,0.0237,0.0226,0.0221,0.0204,0.0184,0.0171,0.0166,0.0148,0.0148,0.0125,0.0149,0.0154,0.0157,0.0166,0.014,0.0143,0.0112,0.0112,0.0112,0,0,0.0243,0.0247,0.0253,0.026,0.0256,0.0266,0.0244,0.0247,0.0255,0.0218,0.0221,0.0198,0.0173,0.0171,0.0167,0.0158,0.0153,0.0158,0.0162,0.0168,0.0141,0.0144,0.0147,0.0112,0.0112,0.0112,0,0,0.0262,0.0264,0.0283,0.0286,0.0286,0.028,0.0285,0.0276,0.0273,0.0273,0.0247,0.0234,0.0214,0.02,0.019,0.0208,0.0175,0.0199,0.0237,0.0212,0.0215,0.0217,0.0191,0.019,0.0204,0.0205,0.0205,0,0.0267,0.0293,0.0286,0.0305,0.0312,0.0292,0.0312,0.0308,0.0297,0.03,0.0281,0.0253,0.0229,0.023,0.0235,0.0219,0.0197,0.0222,0.0219,0.022,0.0221,0.0194,0.0192,0.0207,0.0207,0.0207,0.0207,0,0.0302,0.0321,0.0332,0.0352,0.0356,0.0371,0.0366,0.0369,0.0358,0.0351,0.0346,0.0311,0.0296,0.0284,0.0266,0.0265,0.0245,0.0225,0.0209,0.0228,0.0198,0.0195,0.0211,0.021,0.021,0.0209,0,0,0.032,0.0352,0.0356,0.0378,0.0385,0.0397,0.0411,0.0423,0.0443,0.0415,0.043,0.0398,0.0375,0.0362,0.0331,0.031,0.0295,0.0277,0.0274,0.0257,0.0239,0.0222,0.0217,0.0274,0.0274,0.0274,0.0215,0,0.035,0.0399,0.0403,0.0447,0.0473,0.0465,0.0486,0.0491,0.0487,0.0494,0.0453,0.0451,0.0406,0.04,0.0371,0.0316,0.0291,0.0313,0.0218,0.0216,0.0203,0.0215,0.0225,0.0174,0.0212,0.0212,0.0212,0,0.0387,0.0417,0.0466,0.051,0.0521,0.0542,0.0575,0.0592,0.0592,0.0589,0.057,0.0533,0.0501,0.0455,0.0371,0.0387,0.0321,0.0271,0.0267,0.0232,0.0194,0.016,0.0167,0.0207,0.0207,0.0207,0.0208,0,0.0414,0.0462,0.0506,0.052,0.0561,0.0585,0.0607,0.0623,0.0655,0.0649,0.0659,0.0606,0.0585,0.0496,0.0388,0.038,0.0288,0.0261,0.0182,0.018,0.0161,0.0157,0.0199,0.0199,0.0199,0.0199,0.02,0,0.0451,0.0487,0.0527,0.0555,0.0617,0.0627,0.0691,0.0705,0.0731,0.0773,0.0711,0.0723,0.0594,0.0522,0.0413,0.0293,0.0303,0.0193,0.0166,0.018,0.0179,0.0185,0.0184,0.0197,0.0198,0.0198,0.0198,0,0.0477,0.05,0.056,0.0612,0.0635,0.0681,0.0756,0.0804,0.0815,0.0863,0.0862,0.0815,0.0724,0.0583,0.0441,0.0336,0.0215,0.0167,0.0192,0.0169,0.0116,0.0118,0.0076,0.0075,0.0075,0.0074,0.0073,0,0.0498,0.053,0.0605,0.0648,0.0678,0.0748,0.0804,0.0845,0.0902,0.0924,0.0954,0.088,0.0846,0.0628,0.0429,0.0234,0.0209,0.0112,0.0097,0.0127,0.0104,0.0108,0.0112,0.009,0.009,0.009,0.0089,0,0.0536,0.056,0.0609,0.07,0.0767,0.0849,0.0932,0.099,0.1037,0.1077,0.1113,0.1084,0.0874,0.0683,0.0408,0.0275,0.0143,0.0099,0.0123,0.0124,0.0136,0.0115,0.0119,0.0086,0.0087,0.0087,0.0087,0.0087,0.0563,0.0604,0.0669,0.0756,0.0836,0.094,0.1021,0.1107,0.1203,0.1268,0.1234,0.1192,0.0957,0.0615,0.0374,0.0119,0.0135,0.0042,0.0044,0.0047,0.0063,0.0074,0.0015,0.0015,0.0014,0.0014,0.0014,0,0.0594,0.0643,0.0723,0.0828,0.092,0.0962,0.1098,0.1182,0.1302,0.1347,0.1376,0.115,0.0921,0.0647,0.0269,0.0049,0.0035,-0.0024,0.0004,0.0009,0.0013,0.0028,-0.003,-0.0031,-0.0032,-0.0032,0,0,0.0612,0.0685,0.0726,0.0875,0.0956,0.1089,0.1174,0.1296,0.1368,0.1428,0.1401,0.1341,0.1,0.072,0.0411,0.019,0.0155,0.0147,0.0207,0.0282,0.0289,0.0072,0.0104,0,0,0,0,0]}],[{"header":{"parameterUnit":"m.s-1","parameterCategory":2,"la1":30.2991,"la2":30.254,"lo1":-89.0895,"lo2":-89.0444,"dy":0.0017,"dx":0.0017,"nx":28,"ny":28,"refTime":"2025-03-21T21:00:00:Z","depth":"4","parameterNumber":2,"parameterNumberName":"U-component_of_CURRENTS"},"data":[0,0,0,0,0,0,0,0,0,0,0,0,0,0,0,0,0,0,0,0,0,0,0,0,0,0,0,0,0,0,0,0,0,0,0,0,0,0,0,0,0,0,0,0,0,0,0,0,0,0,0,0,0,0,0,0,0,0,0.1385,0.1385,0,0.1389,0.1389,0.1389,0.14,0.14,0.1401,0.1401,0.1425,0.1425,0.1425,0,0,0,0,0,0,0,0,0,0,0,0,0,0.1363,0.1363,0.1385,0.1385,0.1386,0.1389,0.1389,0.1389,0.14,0.14,0.1401,0.1402,0.1425,0.1425,0.1425,0,0,0,0,0,0,0,0,0,0,0,0,0,0.1368,0.1363,0.1385,0.1394,0.1395,0.1389,0.1389,0.1389,0.14,0.14,0.1401,0.1402,0.1425,0.1425,0.1425,0.1412,0,0,0.1426,0.1426,0,0,0,0,0,0,0,0,0.1368,0.1368,0.1392,0.1393,0.1394,0.1397,0.139,0.1399,0.1399,0.1395,0.1401,0.1402,0.1419,0.142,0.1414,0.1413,0.1414,0.1426,0.1426,0.1427,0.1427,0,0,0,0,0,0,0,0.1367,0.1368,0.1384,0.1392,0.1394,0.139,0.1391,0.1391,0.1401,0.1395,0.1397,0.1402,0.1419,0.1414,0.1415,0.1415,0.1426,0.1426,0.1427,0.1427,0.1493,0.1494,0,0,0,0,0,0,0.1373,0.1368,0.1384,0.1384,0.1386,0.139,0.1391,0.1393,0.14,0.1403,0.1401,0.1402,0.1413,0.1415,0.1416,0.1473,0.1427,0.1427,0.1427,0.1491,0.1493,0.1495,0,0,0,0,0,0,0.1372,0.1374,0.1384,0.1379,0.138,0.139,0.1392,0.1393,0.1419,0.1405,0.1407,0.143,0.1414,0.1416,0.1441,0.1471,0.1427,0.1427,0.1489,0.1492,0.1494,0.154,0,0,0,0,0,0,0.1372,0.1374,0.1392,0.1379,0.1381,0.1399,0.1391,0.1393,0.142,0.1422,0.143,0.1431,0.1415,0.1441,0.1442,0.1471,0.1427,0.1487,0.149,0.1493,0.1537,0.1544,0.155,0,0,0,0,0,0.1371,0.1383,0.1392,0.1395,0.14,0.14,0.1401,0.1407,0.1421,0.1434,0.1442,0.1432,0.1461,0.1442,0.1443,0.1473,0.1486,0.1489,0.1493,0.1534,0.1543,0.155,0,0,0,0,0,0,0.1381,0.1386,0.1395,0.141,0.1417,0.1403,0.1422,0.1427,0.1443,0.1459,0.1445,0.1446,0.1481,0.1474,0.1454,0.1503,0.1475,0.1479,0.1506,0.1514,0.1521,0.1532,0.1428,0,0,0,0,0,0.1393,0.1409,0.1408,0.1425,0.1433,0.1436,0.1445,0.1451,0.1457,0.1466,0.1471,0.1482,0.149,0.1501,0.1505,0.1529,0.1529,0.1552,0.1559,0.1564,0.1576,0.1606,0.1616,0.1506,0.1506,0.1506,0,0,0.1403,0.1409,0.142,0.143,0.1439,0.1449,0.1443,0.1467,0.1483,0.1466,0.1502,0.1507,0.1503,0.1527,0.1543,0.1529,0.1595,0.1569,0.1574,0.1582,0.161,0.1621,0.163,0.1509,0.1508,0.1508,0,0,0.1418,0.1438,0.1454,0.1463,0.1485,0.1484,0.15,0.1509,0.1525,0.1553,0.1548,0.1574,0.1587,0.1587,0.1588,0.1637,0.163,0.1648,0.169,0.1719,0.1728,0.1736,0.1744,0.1752,0.1652,0.1652,0.1652,0,0.1435,0.1448,0.1459,0.1473,0.1488,0.1505,0.1522,0.1535,0.1554,0.1577,0.1578,0.1619,0.1614,0.1642,0.1658,0.1652,0.1664,0.1655,0.1727,0.1735,0.1743,0.1749,0.1757,0.1654,0.1654,0.1654,0.1654,0,0.1446,0.1471,0.1483,0.1507,0.1525,0.1545,0.1563,0.1594,0.1623,0.1638,0.169,0.1686,0.1713,0.1716,0.17,0.1754,0.1743,0.173,0.1704,0.1756,0.1759,0.1767,0.1658,0.1657,0.1656,0.1656,0,0,0.144,0.1483,0.1491,0.151,0.1547,0.1556,0.1602,0.1638,0.1677,0.1711,0.1757,0.1777,0.1797,0.18,0.1792,0.1814,0.1866,0.1802,0.1803,0.1804,0.1926,0.1798,0.1794,0.1872,0.1874,0.1875,0.1904,0,0.1448,0.1479,0.1502,0.154,0.1556,0.1595,0.1629,0.1674,0.1716,0.1765,0.1792,0.1832,0.1822,0.1843,0.1869,0.1868,0.1892,0.1859,0.188,0.1881,0.1755,0.18,0.1882,0.191,0.1912,0.1913,0.1914,0,0.1441,0.1466,0.1504,0.1556,0.157,0.1603,0.1673,0.1708,0.1783,0.1821,0.1881,0.1902,0.195,0.1928,0.1975,0.196,0.1957,0.1949,0.195,0.1821,0.1767,0.1849,0.1928,0.1927,0.1926,0.1925,0.1924,0,0.1411,0.1464,0.1498,0.1515,0.1577,0.1617,0.1661,0.1737,0.178,0.1869,0.1912,0.1973,0.2008,0.2029,0.2028,0.2015,0.2065,0.2038,0.1918,0.1908,0.1994,0.1985,0.2075,0.2075,0.2075,0.2075,0.2074,0,0.1387,0.1417,0.1494,0.1509,0.1562,0.1615,0.1684,0.174,0.1825,0.1872,0.1948,0.1982,0.2041,0.2071,0.206,0.2013,0.2097,0.1933,0.1912,0.2011,0.2004,0.1998,0.1989,0.2076,0.2075,0.2075,0.2075,0,0.1339,0.139,0.1433,0.1515,0.1548,0.159,0.1694,0.1731,0.183,0.1894,0.1927,0.2015,0.2048,0.208,0.2105,0.2037,0.201,0.1973,0.2079,0.2062,0.1824,0.1818,0.1836,0.1831,0.1828,0.1825,0.1822,0,0.1312,0.1332,0.1431,0.1459,0.1504,0.1577,0.1618,0.1725,0.1761,0.1888,0.1899,0.1981,0.2018,0.1954,0.2001,0.1975,0.1947,0.1918,0.1867,0.1825,0.1803,0.1802,0.18,0.1817,0.1816,0.1815,0.1814,0,0.1261,0.1313,0.1349,0.1411,0.1463,0.1508,0.1579,0.1597,0.1704,0.181,0.1821,0.183,0.1861,0.1868,0.1867,0.1843,0.1927,0.188,0.1887,0.1838,0.1802,0.1784,0.1786,0.1802,0.1803,0.1805,0.1805,0,0.1229,0.1242,0.1301,0.134,0.14,0.141,0.1461,0.1491,0.1543,0.1674,0.1675,0.1755,0.1844,0.18,0.1798,0.1769,0.173,0.1656,0.1673,0.1687,0.1623,0.1555,0.1467,0,0,0,0,0,0.1185,0.1185,0.1218,0.1246,0.1298,0.1334,0.1413,0.1462,0.1567,0.153,0.1597,0.1614,0.161,0.1657,0.1593,0.1727,0.1739,0.1644,0.1663,0.1733,0.1748,0.1685,0,0,0,0,0,0,0.1152,0.1184,0.1186,0.1156,0.1158,0.1199,0.1246,0.1318,0.1304,0.1418,0.1427,0.1511,0.1537,0.1629,0.1562,0.1573,0.1548,0.17,0.1695,0.1725,0.1738,0.175,0.169,0,0,0,0,0]},{"header":{"parameterUnit":"m.s-1","parameterCategory":2,"la1":30.2991,"la2":30.254,"lo1":-89.0895,"lo2":-89.0444,"dy":0.0017,"dx":0.0017,"nx":28,"ny":28,"refTime":"2025-03-21T21:00:00:Z","depth":"4","parameterNumber":3,"parameterNumberName":"V-component_of_CURRENTS"},"data":[0,0,0,0,0,0,0,0,0,0,0,0,0,0,0,0,0,0,0,0,0,0,0,0,0,0,0,0,0,0,0,0,0,0,0,0,0,0,0,0,0,0,0,0,0,0,0,0,0,0,0,0,0,0,0,0,0,0,0.021,0.021,0,0.0198,0.0198,0.0197,0.019,0.019,0.019,0.019,0.0166,0.0165,0.0164,0,0,0,0,0,0,0,0,0,0,0,0,0,0.0194,0.0194,0.021,0.021,0.0209,0.0198,0.0198,0.0197,0.019,0.019,0.019,0.019,0.0166,0.0165,0.0164,0,0,0,0,0,0,0,0,0,0,0,0,0,0.0193,0.0194,0.021,0.0204,0.0204,0.0198,0.0198,0.0197,0.019,0.019,0.019,0.019,0.0166,0.0165,0.0164,0.016,0,0,0.0162,0.0161,0,0,0,0,0,0,0,0,0.0193,0.0194,0.0205,0.0205,0.0204,0.0195,0.0183,0.0184,0.019,0.0195,0.019,0.019,0.0174,0.0173,0.0171,0.0159,0.0158,0.0162,0.0161,0.0161,0.016,0,0,0,0,0,0,0,0.0193,0.0194,0.0205,0.0205,0.0204,0.0191,0.0191,0.0183,0.0185,0.0195,0.0194,0.0193,0.0174,0.0172,0.017,0.0158,0.0162,0.0161,0.016,0.016,0.0147,0.0147,0,0,0,0,0,0,0.0197,0.0194,0.0205,0.0205,0.0198,0.0192,0.0192,0.0198,0.0185,0.0184,0.0193,0.0192,0.0173,0.0171,0.0169,0.0179,0.0161,0.016,0.0159,0.0147,0.0147,0.0147,0,0,0,0,0,0,0.0196,0.0198,0.0206,0.0199,0.0199,0.0192,0.0199,0.0198,0.0201,0.0184,0.0182,0.0198,0.0173,0.0171,0.0169,0.0177,0.0159,0.0159,0.0146,0.0147,0.0147,0.0188,0,0,0,0,0,0,0.0196,0.0198,0.0205,0.0199,0.0199,0.021,0.0199,0.0198,0.02,0.0199,0.0188,0.0185,0.0173,0.0171,0.0169,0.0176,0.0158,0.0146,0.0146,0.0147,0.0187,0.019,0.0193,0,0,0,0,0,0.0196,0.0207,0.0206,0.0207,0.0209,0.021,0.021,0.0204,0.02,0.0206,0.0197,0.0186,0.0171,0.0171,0.0168,0.0175,0.0146,0.0146,0.0147,0.0185,0.0189,0.0193,0,0,0,0,0,0,0.0202,0.0207,0.0206,0.0218,0.0217,0.0209,0.0213,0.0209,0.0207,0.0207,0.0191,0.0188,0.0188,0.0175,0.0175,0.0171,0.0155,0.0155,0.0186,0.0189,0.0192,0.0202,0.0157,0,0,0,0,0,0.0207,0.0219,0.0218,0.0227,0.0229,0.0222,0.0222,0.022,0.0215,0.0215,0.0205,0.0194,0.0187,0.0184,0.0174,0.0175,0.0154,0.0176,0.0179,0.0181,0.0186,0.0159,0.016,0.0148,0.0148,0.0148,0,0,0.0212,0.0216,0.0222,0.0229,0.0228,0.0237,0.0223,0.0228,0.0236,0.0212,0.022,0.0206,0.0189,0.0189,0.0188,0.0181,0.0174,0.0182,0.0185,0.0188,0.016,0.0161,0.0162,0.0149,0.0149,0.0148,0,0,0.0226,0.0232,0.0246,0.025,0.0253,0.025,0.0254,0.0251,0.0252,0.0256,0.024,0.0231,0.0222,0.021,0.0203,0.0216,0.019,0.0213,0.0238,0.0211,0.0212,0.0213,0.0188,0.0186,0.0215,0.0215,0.0215,0,0.0232,0.0252,0.0249,0.0264,0.0271,0.0259,0.0276,0.0275,0.0271,0.0275,0.0265,0.0247,0.0231,0.023,0.0234,0.0224,0.0206,0.0227,0.0216,0.0216,0.0215,0.019,0.0188,0.0217,0.0217,0.0217,0.0217,0,0.0257,0.0274,0.0283,0.03,0.0305,0.0318,0.0316,0.0322,0.0319,0.0315,0.0313,0.0288,0.0278,0.0269,0.0257,0.0251,0.0238,0.0223,0.0208,0.0219,0.0192,0.0188,0.022,0.022,0.0219,0.0218,0,0,0.0267,0.0296,0.03,0.0319,0.0328,0.0338,0.0351,0.0362,0.0378,0.0361,0.0372,0.0349,0.0333,0.0323,0.0301,0.0277,0.0258,0.0255,0.0253,0.0235,0.0202,0.0187,0.0182,0.0242,0.0242,0.0241,0.0184,0,0.0289,0.0328,0.0334,0.037,0.039,0.039,0.0408,0.0414,0.0413,0.0419,0.0386,0.0387,0.0354,0.0352,0.0323,0.0277,0.025,0.0275,0.0191,0.0189,0.0177,0.0178,0.024,0.0181,0.018,0.018,0.0179,0,0.0313,0.0338,0.0378,0.0418,0.0427,0.0448,0.0477,0.0492,0.0492,0.0491,0.0476,0.0449,0.0417,0.0385,0.0306,0.0325,0.027,0.0227,0.0223,0.0193,0.0167,0.0167,0.0172,0.0173,0.0173,0.0174,0.0174,0,0.0329,0.0371,0.0408,0.042,0.0457,0.0482,0.0503,0.0518,0.0543,0.0538,0.0547,0.0498,0.048,0.0404,0.0313,0.0311,0.0219,0.0203,0.0135,0.0133,0.0145,0.0145,0.0143,0.0143,0.0143,0.0143,0.0144,0,0.0351,0.0382,0.0424,0.0446,0.0501,0.0514,0.057,0.0583,0.0605,0.0634,0.0588,0.0589,0.0485,0.0418,0.0328,0.0222,0.0227,0.014,0.0118,0.0164,0.0167,0.0143,0.0143,0.0141,0.0142,0.0142,0.0142,0,0.0362,0.0387,0.0438,0.0489,0.0513,0.0553,0.0624,0.066,0.0674,0.0707,0.0707,0.0659,0.0573,0.0458,0.0332,0.0249,0.0143,0.0102,0.0165,0.0146,0.0071,0.0075,0.0024,0.0023,0.0023,0.0022,0.0021,0,0.0372,0.0399,0.0472,0.0511,0.0542,0.0606,0.0655,0.0695,0.0734,0.0748,0.0763,0.0695,0.0643,0.0457,0.0332,0.0155,0.0125,0.0066,0.0064,0.0076,0.0059,0.0064,0.0068,0.002,0.002,0.0019,0.0019,0,0.039,0.0418,0.046,0.0542,0.0604,0.0674,0.0745,0.0777,0.0816,0.0825,0.0806,0.0708,0.0609,0.0461,0.0321,0.0193,0.0102,0.0057,0.0058,0.0055,0.007,0.0055,0.006,0.0016,0.0017,0.0017,0.0017,0,0.0404,0.0436,0.0495,0.0568,0.0646,0.0719,0.0758,0.0803,0.084,0.0849,0.084,0.073,0.0671,0.0481,0.0354,0.0224,0.0187,0.0136,0.0132,0.0134,0.0178,0.0214,0.0187,0,0,0,0,0,0.0413,0.045,0.0517,0.0598,0.0676,0.0726,0.0807,0.0838,0.0871,0.0861,0.0853,0.0758,0.057,0.0497,0.0364,0.0329,0.016,0.0168,0.0099,0.0,0.0004,0.0034,0,0,0,0,0,0,0.0419,0.0477,0.0512,0.0608,0.0668,0.0759,0.0813,0.0839,0.0838,0.0846,0.0754,0.071,0.0535,0.0643,0.0356,0.0319,0.0253,0.0086,0.0083,-0.0002,0.0001,0.0004,0.0037,0,0,0,0,0]}]]